Regional Weather Roundup
Issued by NWS

Home | Current Version | Previous Version | Text Only | Print | Product List | Glossary Off
Versions: 1 2 3 4 5 6 7 8 9 10 11 12 13 14 15 16 17 18 19 20 21 22 23 24 25 26 27 28 29 30 31 32 33 34 35 36 37 38 39 40 41 42 43 44 45 46 47 48 49 50

000
ASUS43 KMPX 020410
RWRMN
WEATHER ROUNDUP FOR MINNESOTA
NATIONAL WEATHER SERVICE TWIN CITIES/CHANHASSEN MN
1100 PM CDT TUE SEP 01 2015


NOTE: "FAIR" INDICATES FEW OR NO CLOUDS BELOW 12,000 FEET WITH NO
SIGNIFICANT WEATHER AND/OR OBSTRUCTIONS TO VISIBILITY. N/A MEANS
CURRENT SKY AND/OR WEATHER CONDITIONS ARE NOT AVAILABLE.

MNZ060>063-068>070-020500-
   Twin Cities Metro

CITY           SKY/WX    TMP DP  RH WIND       PRES   REMARKS
TWIN CITIES    MOCLDY    80  72  76 S6        29.93R
ST PAUL        MOCLDY    74  73  97 SE5       29.92S
CRYSTAL        CLOUDY    80  72  76 S3        29.91R
BLAINE         CLOUDY    75  73  94 CALM      29.93R
LAKEVILLE      PTCLDY    70  70 100 CALM      29.94R FOG
EDEN PRAIRIE   MOCLDY    76  73  91 SE7       29.92S
SOUTH ST PAUL  MOCLDY    77  73  87 CALM      29.92S
LAKE ELMO      FAIR      73  72  94 SE6       29.93S
$$
MNZ001>005-007-008-013>017-022>024-027-028-020500-
   Northwest Minnesota

CITY           SKY/WX    TMP DP  RH WIND       PRES   REMARKS
BEMIDJI        CLEAR     64  56  75 SE5       29.92F
HALLOCK        CLEAR     72  55  56 SE8       29.84R
ROSEAU         CLEAR     63  57  82 S6        29.88S
WARROAD        CLEAR     68  59  73 S6        29.89S
THIEF RVR FALL CLEAR     66  57  72 SE8       29.88S
CROOKSTON      CLEAR     68  57  68 SE9       29.85F
FOSSTON        CLEAR     66  57  72 E6        29.90S
DETROIT LAKES  CLEAR     72  66  83 SE6       29.90S
MOORHEAD       CLEAR     72  68  88 SE5       29.85S
PARK RAPIDS    PTCLDY    73  61  65 E7        29.91F
MAHNOMEN       FAIR      70  62  75 SE6       29.87F
$$
MNZ006-009>011-018-025>026-020500-
   North Central Minnesota

CITY           SKY/WX    TMP DP  RH WIND       PRES   REMARKS
BAUDETTE       CLEAR     63  56  78 SE3       29.91R
FLAG ISLAND    CLEAR     70  64  83 S6        29.88R
INTL FALLS     CLEAR     55  53  93 CALM      29.93R
WASKISH        CLEAR     61  57  88 CALM      29.92S
BIG FORK       PTCLDY    57  55  94 CALM      29.95R FOG
LONGVILLE      MOCLDY    64  63  94 CALM      29.92F
GRAND RAPIDS     N/A     63  57  82 CALM      29.95S
CRANE LAKE     PTCLDY    55  54  94 CALM      29.96R
ORR            PTCLDY    63  55  77 CALM      29.93S
COOK           MOCLDY    61  57  88 CALM      29.95S
WALKER         FAIR      65  63  93 CALM      29.92F
$$
MNZ012-019>021-037-020500-
   Northeast Minnesota

CITY           SKY/WX    TMP DP  RH WIND       PRES   REMARKS
DULUTH         PTCLDY    68  66  93 CALM      29.96R
ELY            MOCLDY    59  55  88 CALM      29.96F
HIBBING        MOCLDY    61  59  93 CALM      29.96R
EVELETH        MOCLDY    59  59 100 CALM      29.97R
DULUTH HARBOR  PTCLDY    66  64  94 NE3       29.93S FOG
TWO HARBORS    PTCLDY    66  63  88 CALM      29.93S
SILVER BAY     PTCLDY    63  61  94 CALM      29.94R
GRAND MARAIS     N/A     60  58  92 CALM      29.93R
G MARAIS ARPRT PTCLDY    55  52  88 N3        30.00R
$$
MNZ029>031-032-039>041-046>048-054>057-064-020500-
   West Central Minnesota

CITY           SKY/WX    TMP DP  RH WIND       PRES   REMARKS
FERGUS FALLS   CLEAR     72  72 100 S8        29.87S
WHEATON        CLEAR     63  63 100 E5        29.87F FOG
MORRIS         PTCLDY    70  68  94 E6        29.87F FOG
ALEXANDRIA     PTCLDY    71  69  93 SE5       29.92R
ELBOW LAKE     FAIR      69  69  98 CALM      29.88F
WADENA         PTCLDY    68  66  94 CALM      29.89F
GLENWOOD       MOCLDY    70  68  94 CALM      29.91F FOG
APPLETON       FOG       72  68  88 SE3       29.87R VSB 1/4
BENSON         FOG       70  66  88 CALM      29.88F VSB 1/2
ORTONVILLE     PTCLDY    72  68  88 SE5       29.87R
MADISON        PTCLDY    72  68  88 S9        29.89R
WILLMAR        FAIR      75  73  94 SE6       29.91S FOG
$$
MNZ033>034-036-042>043-049>051-058-059-020500-
   Central Minnesota

CITY           SKY/WX    TMP DP  RH WIND       PRES   REMARKS
ST CLOUD       CLOUDY    70  69  97 S3        29.90F
SAUK CENTRE    FAIR      72  69  91 CALM      29.91R
PAYNESVILLE    CLOUDY    73  69  87 E6        29.90F
AITKIN         CLOUDY    72  64  78 CALM      29.93R
PINE RIVER     MOCLDY    68  64  88 E3        29.95F
BRAINERD       CLOUDY    71  68  90 CALM      29.92S
STAPLES        MOCLDY    72  66  83 CALM      29.90F
LONG PRAIRIE   FAIR      70  68  94 S6        29.92R
LITTLE FALLS   CLOUDY    72  66  83 E3        29.90F
LITCHFIELD     CLOUDY    73  73 100 SE3       29.92S FOG
BUFFALO        DRIZZLE   76  73  88 CALM      29.92S
MAPLE LAKE     CLOUDY    77  75  93 CALM      29.92F
$$
MNZ037-044-045-052-053-020500-
   East Central Minnesota

CITY           SKY/WX    TMP DP  RH WIND       PRES   REMARKS
PRINCETON      LGT RAIN  75  73  94 NE7       29.90F
MORA           CLOUDY    73  70  88 CALM      29.95R
CAMBRIDGE      CLOUDY    79  68  69 CALM      29.91R
RUSH CITY      CLOUDY    73  71  93 CALM      29.92S
MOOSE LAKE     CLOUDY    70  70 100 CALM      29.92S FOG
HINCKLEY       MOCLDY    72  72 100 CALM      29.93R FOG
CLOQUET        PTCLDY    70  66  88 CALM      29.95S
MCGREGOR       CLOUDY    72  70  94 NE3       29.93F
$$
MNZ071>073-080-081-089-090-097-098-020500-
   Southwest Minnesota

CITY           SKY/WX    TMP DP  RH WIND       PRES   REMARKS
MONTEVIDEO     CLOUDY    73  73 100 S7        29.91R
GRANITE FALLS  CLOUDY    73  72  96 CALM      29.91R
CANBY          LGT RAIN  68  62  83 SE10G18   29.91R
MARSHALL       CLOUDY    66  59  77 S21G26    29.94S THUNDER
REDWOOD FALLS  LGT RAIN  76  71  85 SE7       29.90R
OLIVIA         LGT RAIN  72  68  88 SE6       29.90R
PIPESTONE      CLOUDY    70  64  83 E9        29.91R
WINDOM         CLOUDY    75  70  83 CALM      29.93R
WORTHINGTON    CLOUDY    73  70  88 S8        29.90S
JACKSON        MOCLDY    77  72  83 SE12      29.92S
TRACY          CLOUDY    68  64  88 W7G17     29.95R
SLAYTON        TSTM      66  65  96 N12       29.95R
$$
MNZ065>067-074>077-082>085-091>093-020500-
   South Central Minnesota

CITY           SKY/WX    TMP DP  RH WIND       PRES   REMARKS
MANKATO        PTCLDY    73  70  88 SE6       29.93S
NEW ULM        PTCLDY    75  72  88 SE3       29.92S
ST JAMES       MOCLDY    75  73  94 E5        29.92F
FAIRMONT       MOCLDY    73  66  78 SE9       29.91F
GLENCOE        MOCLDY    74  73  95 CALM      29.92S
FARIBAULT      CLEAR     70  68  94 CALM      29.95S FOG
OWATONNA       CLEAR     75  72  88 S5        29.95R
WASECA         MOCLDY    72  70  94 NW5       29.96R
ALBERT LEA     PTCLDY    75  72  88 S5        29.96R
$$
MNZ078>079-086>088-094>096-020500-
   Southeast Minnesota

CITY           SKY/WX    TMP DP  RH WIND       PRES   REMARKS
ROCHESTER      PTCLDY    72  70  93 S9        29.97S
RED WING       MOCLDY    73  72  94 CALM      29.92F FOG
STANTON        FOG       70  68  92 CALM      29.93S VSB 1/4
DODGE CENTER   PTCLDY    75  70  83 S9        29.96S
WINONA         MOCLDY    79  72  78 CALM      29.94S
AUSTIN         CLEAR     75  72  88 S5        29.96S
PRESTON        PTCLDY    73  71  91 S6        29.99S
$$
ABBREVIATIONS USED IN REMARKS
   TC - TEMPERATURES IN CELSIUS
  WCI - WIND CHILL INDEX
   HX - HEAT INDEX
  VSB - VISIBILITY
$$


USA.gov is the U.S. government's official web portal to all federal, state and local government web resources and services.